WA6MEM Weather Reports


time (UTC)temp
F
wind
direction
speed
knots
gust
knots
rain 1hr
in
rain 24hr
in
rain mn
in
humidity
%
barometer
mb
20260505005518 58 190 3.5 0.0 0.00 0.00 0.00 79 1013.4
20260505005018 58 189 2.6 0.0 0.00 0.00 0.00 80 1013.4
20260505004529 58 162 2.6 0.0 0.00 0.00 0.00 80 1013.4
20260505004017 58 167 2.6 0.0 0.00 0.00 0.00 80 1013.5
20260505003517 57 192 3.5 0.0 0.00 0.00 0.00 78 1013.5
20260505003017 58 144 3.5 0.0 0.00 0.00 0.00 77 1013.5
20260505002517 58 207 3.5 0.0 0.00 0.00 0.00 78 1013.5
20260505002017 58 195 3.5 0.0 0.00 0.00 0.00 79 1013.5
20260505001517 58 207 3.5 0.0 0.00 0.00 0.00 80 1013.5
20260505001018 58 186 4.3 0.0 0.00 0.00 0.00 82 1013.5
20260505000519 57 169 3.5 0.0 0.00 0.00 0.00 82 1013.5
20260505000019 57 200 3.5 0.0 0.00 0.00 0.00 80 1013.5
20260504235516 57 213 4.3 0.0 0.00 0.00 0.00 81 1013.5
20260504235019 57 173 4.3 0.0 0.00 0.00 0.00 82 1013.5
20260504234518 57 174 4.3 0.0 0.00 0.00 0.00 83 1013.5
20260504234017 57 165 4.3 0.0 0.00 0.00 0.00 81 1013.4
20260504233516 58 200 5.2 0.0 0.00 0.00 0.00 78 1013.4
20260504233016 58 140 5.2 0.0 0.00 0.00 0.00 78 1013.4
20260504232516 58 196 5.2 0.0 0.00 0.00 0.00 79 1013.1
20260504232015 59 177 5.2 0.0 0.00 0.00 0.00 76 1013.1
20260504231515 60 136 4.3 0.0 0.00 0.00 0.00 75 1013.1
20260504231017 60 254 4.3 0.0 0.00 0.00 0.00 77 1013.1
20260504230515 60 161 5.2 0.0 0.00 0.00 0.00 76 1013.1
20260504230015 60 188 5.2 0.0 0.00 0.00 0.00 75 1013.1
20260504225517 61 184 5.2 0.0 0.00 0.00 0.00 76 1013.3
20260504225015 60 230 4.3 0.0 0.00 0.00 0.00 78 1013.3
20260504224513 60 175 4.3 0.0 0.00 0.00 0.00 78 1013.3
20260504224014 60 195 6.1 0.0 0.00 0.00 0.00 79 1013.5
20260504223514 60 194 5.2 0.0 0.00 0.00 0.00 79 1013.5
20260504223014 60 175 5.2 0.0 0.00 0.00 0.00 81 1013.5
20260504222514 60 179 5.2 0.0 0.00 0.00 0.00 80 1013.8
20260504222014 60 147 6.1 0.0 0.00 0.00 0.00 81 1013.8
20260504221513 60 234 5.2 0.0 0.00 0.00 0.00 80 1013.8
20260504221013 60 168 4.3 0.0 0.00 0.00 0.00 80 1014.0
20260504220517 60 360 5.2 0.0 0.00 0.00 0.00 79 1014.0
20260504220018 60 236 6.1 0.0 0.00 0.00 0.00 82 1014.0
20260504215512 59 279 5.2 0.0 0.00 0.00 0.00 81 1014.3
20260504215013 59 171 4.3 0.0 0.00 0.00 0.00 82 1014.3
20260504214512 59 233 4.3 0.0 0.00 0.00 0.00 82 1014.3
20260504214013 59 211 5.2 0.0 0.00 0.00 0.00 84 1014.5
20260504213514 59 201 5.2 0.0 0.00 0.00 0.00 82 1014.5
20260504213012 59 162 5.2 0.0 0.00 0.00 0.00 81 1014.5
20260504212512 59 193 5.2 0.0 0.00 0.00 0.00 81 1014.5
20260504212013 59 167 5.2 0.0 0.00 0.00 0.00 82 1014.5
20260504211511 59 173 5.2 0.0 0.00 0.00 0.00 82 1014.5
20260504211011 60 155 5.2 0.0 0.00 0.00 0.00 82 1014.5
20260504210515 60 199 4.3 0.0 0.00 0.00 0.00 81 1014.5
20260504210011 60 203 4.3 0.0 0.00 0.00 0.00 81 1014.5
20260504205510 60 128 4.3 0.0 0.00 0.00 0.00 82 1014.5
20260504205009 60 203 4.3 0.0 0.00 0.00 0.00 81 1014.5
20260504204515 60 183 3.5 0.0 0.00 0.00 0.00 82 1014.5
20260504204009 60 248 4.3 0.0 0.00 0.00 0.00 82 1014.6
20260504203510 60 225 4.3 0.0 0.00 0.00 0.00 80 1014.6
20260504203009 59 360 4.3 0.0 0.00 0.00 0.00 82 1014.6
20260504202509 60 197 5.2 0.0 0.00 0.00 0.00 81 1014.4
20260504202009 60 196 5.2 0.0 0.00 0.00 0.00 80 1014.4
20260504201508 60 186 4.3 0.0 0.00 0.00 0.00 79 1014.4
20260504201009 60 312 4.3 0.0 0.00 0.00 0.00 78 1014.5
20260504200508 61 205 3.5 0.0 0.00 0.00 0.00 78 1014.5
20260504200008 61 150 4.3 0.0 0.00 0.00 0.00 78 1014.5
20260504195507 61 212 4.3 0.0 0.00 0.00 0.00 78 1014.4
20260504195007 61 139 3.5 0.0 0.00 0.00 0.00 78 1014.4
20260504194508 61 200 4.3 0.0 0.00 0.00 0.00 76 1014.4
20260504194007 61 155 4.3 0.0 0.00 0.00 0.00 77 1014.4
20260504193507 61 238 4.3 0.0 0.00 0.00 0.00 71 1014.4
20260504193006 61 202 4.3 0.0 0.00 0.00 0.00 73 1014.4
20260504192506 61 169 4.3 0.0 0.00 0.00 0.00 75 1014.5
20260504192007 62 179 4.3 0.0 0.00 0.00 0.00 71 1014.5
20260504191510 62 140 4.3 0.0 0.00 0.00 0.00 73 1014.5
20260504191004 61 248 4.3 0.0 0.00 0.00 0.00 74 1014.5
20260504190504 61 196 4.3 0.0 0.00 0.00 0.00 72 1014.5
20260504190006 60 187 3.5 0.0 0.00 0.00 0.00 74 1014.5
20260504185500 60 273 3.5 0.0 0.00 0.00 0.00 73 1014.8
20260504185100 60 244 3.5 0.0 0.00 0.00 0.00 75 1014.8
20260504184602 60 227 3.5 0.0 0.00 0.00 0.00 75 1014.8
20260504184100 60 271 4.3 0.0 0.00 0.00 0.00 74 1014.6
20260504183559 60 191 3.5 0.0 0.00 0.00 0.00 76 1014.6
20260504183105 60 226 3.5 0.0 0.00 0.00 0.00 78 1014.6
20260504182558 60 282 3.5 0.0 0.00 0.00 0.00 77 1014.7
20260504182058 59 161 4.3 0.0 0.00 0.00 0.00 79 1014.7
20260504181604 60 234 3.5 0.0 0.00 0.00 0.00 75 1014.7
20260504181058 59 248 3.5 0.0 0.00 0.00 0.00 77 1014.6
20260504180559 59 231 3.5 0.0 0.00 0.00 0.00 78 1014.6
20260504180057 59 204 4.3 0.0 0.00 0.00 0.00 79 1014.6
20260504175556 58 269 5.2 0.0 0.00 0.00 0.00 77 1014.7
20260504175056 59 156 4.3 0.0 0.00 0.00 0.00 78 1014.7
20260504174555 59 192 2.6 0.0 0.00 0.00 0.00 79 1014.7
20260504174055 58 161 3.5 0.0 0.00 0.00 0.00 79 1014.6
20260504173554 58 217 3.5 0.0 0.00 0.00 0.00 79 1014.6
20260504173059 58 316 3.5 0.0 0.00 0.00 0.00 78 1014.6
20260504172554 58 277 3.5 0.0 0.00 0.00 0.00 77 1014.5
20260504172054 58 225 3.5 0.0 0.00 0.00 0.00 77 1014.5
20260504171557 58 210 3.5 0.0 0.00 0.00 0.00 77 1014.5
20260504171054 58 192 2.6 0.0 0.00 0.00 0.00 76 1014.3
20260504170553 58 225 2.6 0.0 0.00 0.00 0.00 75 1014.3
20260504151036 53 277 4.3 0.0 0.00 0.00 0.00 85 1013.7
20260504150536 53 319 5.2 0.0 0.00 0.00 0.00 85 1013.7
20260504141031 51 282 4.3 0.0 0.00 0.00 0.00 91 1013.5
20260504140634 51 311 4.3 0.0 0.00 0.00 0.00 91 1013.5
20260504130527 51 302 3.5 0.0 0.00 0.00 0.00 90 1013.2
20260504110518 52 237 2.6 0.0 0.00 0.00 0.00 90 1013.3
20260504100511 52 307 2.6 0.0 0.00 0.00 0.00 90 1013.0
20260504082003 53 270 0.9 0.0 0.00 0.00 0.00 90 1013.4
20260504081502 53 250 0.9 0.0 0.00 0.00 0.00 90 1013.4
20260504081002 53 250 0.9 0.0 0.00 0.00 0.00 90 1013.9
20260504080502 53 209 0.0 0.0 0.00 0.00 0.00 90 1013.9
20260504050550 53 177 0.9 0.0 0.00 0.00 0.00 89 1013.6
20260504045547 53 256 0.9 0.0 0.00 0.00 0.00 90 1013.6
20260504045048 53 188 0.9 0.0 0.00 0.00 0.00 90 1013.6
20260504044547 54 199 0.9 0.0 0.00 0.00 0.00 91 1013.6
20260504044047 54 167 0.9 0.0 0.00 0.00 0.00 90 1013.6
20260504043548 54 220 0.9 0.0 0.00 0.00 0.00 90 1013.6
20260504043055 54 160 0.9 0.0 0.00 0.00 0.00 90 1013.6
20260504042548 54 204 0.9 0.0 0.00 0.00 0.00 90 1013.5
20260504042046 54 213 0.9 0.0 0.00 0.00 0.00 90 1013.5
20260504041546 54 268 0.9 0.0 0.00 0.00 0.00 89 1013.5
20260504041046 54 183 0.9 0.0 0.00 0.00 0.00 89 1013.4
20260504040546 54 188 0.9 0.0 0.00 0.00 0.00 89 1013.4
20260504040046 54 183 1.7 0.0 0.00 0.00 0.00 88 1013.4
20260504035546 54 192 1.7 0.0 0.00 0.00 0.00 88 1013.1
20260504035046 54 173 1.7 0.0 0.00 0.00 0.00 88 1013.1
20260504034548 54 238 1.7 0.0 0.00 0.00 0.00 88 1013.1
20260504034045 54 198 1.7 0.0 0.00 0.00 0.00 88 1013.0
20260504033548 54 243 0.9 0.0 0.00 0.00 0.00 88 1013.0
20260504033045 54 203 0.9 0.0 0.00 0.00 0.00 88 1013.0
20260504032545 54 200 0.9 0.0 0.00 0.00 0.00 88 1012.6
20260504032048 54 229 0.9 0.0 0.00 0.00 0.00 88 1012.6
20260504031545 54 255 1.7 0.0 0.00 0.00 0.00 88 1012.6
20260504031044 54 238 2.6 0.0 0.00 0.00 0.00 88 1012.5
20260504030544 54 222 2.6 0.0 0.00 0.00 0.00 88 1012.5
20260504030045 54 208 1.7 0.0 0.00 0.00 0.00 88 1012.5
20260504025544 54 243 1.7 0.0 0.00 0.00 0.00 88 1012.5
20260504025044 54 191 1.7 0.0 0.00 0.00 0.00 88 1012.5
20260504024548 54 184 1.7 0.0 0.00 0.00 0.00 88 1012.5
20260504024046 54 185 1.7 0.0 0.00 0.00 0.00 87 1012.5
20260504023543 54 202 1.7 0.0 0.00 0.00 0.00 87 1012.5
20260504023044 55 186 2.6 0.0 0.00 0.00 0.00 87 1012.5
20260504022544 55 267 2.6 0.0 0.00 0.00 0.00 87 1012.4
20260504022043 55 221 2.6 0.0 0.00 0.00 0.00 86 1012.4
20260504021543 55 196 2.6 0.0 0.00 0.00 0.00 86 1012.4
20260504021042 55 229 2.6 0.0 0.00 0.00 0.00 86 1012.3
20260504020545 55 237 1.7 0.0 0.00 0.00 0.00 85 1012.3
20260504020122 55 212 1.7 0.0 0.00 0.00 0.00 85 1012.3
20260504015542 55 223 2.6 0.0 0.00 0.00 0.00 85 1012.1
20260504015044 55 202 2.6 0.0 0.00 0.00 0.00 85 1012.1
20260504014557 56 276 2.6 0.0 0.00 0.00 0.00 84 1012.1
20260504014041 56 215 1.7 0.0 0.00 0.00 0.00 84 1012.0
20260504013541 56 184 2.6 0.0 0.00 0.00 0.00 84 1012.0
20260504013053 56 188 2.6 0.0 0.00 0.00 0.00 83 1012.0
20260504012541 56 159 2.6 0.0 0.00 0.00 0.00 81 1012.0
20260504012042 57 204 3.5 0.0 0.00 0.00 0.00 80 1012.0
20260504011543 57 184 3.5 0.0 0.00 0.00 0.00 79 1012.0
20260504011041 57 191 2.6 0.0 0.00 0.00 0.00 79 1011.9
20260504010541 58 228 3.5 0.0 0.00 0.00 0.00 77 1011.9
20260504010044 58 205 2.6 0.0 0.00 0.00 0.00 76 1011.9